#timestamp,LO_Frequency,Hit 
1503367215.4,286047002.6,N
1503367235.3,286047001.4,N
1503367255.1,286047002.4,N
1503367256.0,286047002.4,N
1503367275.8,286047005.5,P
1503367295.7,286047003.3,N
1503367315.5,286047004.0,N
1503367335.3,286047004.9,P
1503367355.2,286047000.2,N
1503367375.9,286047001.2,N
1503367395.7,286046999.1,N
1503367415.6,286047000.5,N
1503367435.4,286046996.9,N
1503367455.2,286046997.1,N
1503367475.1,286046998.9,N
1503367476.0,286046998.9,N
1503367495.8,286047000.7,N
1503367515.6,286047002.1,N
1503367535.4,286046999.9,N
1503367555.3,286047000.9,N
1503367575.1,286047000.7,N
1503367595.8,286047002.1,N
1503367615.7,286047002.4,N
1503367635.5,286046998.1,N
1503367655.3,286047001.4,N
1503367675.2,286047003.4,N
1503367695.9,286046999.7,N
1503367715.7,286046998.6,N
1503367735.6,286047001.1,N
1503367755.4,286047002.4,N
1503367775.2,286046999.8,N
1503367795.1,286047000.5,N
1503367796.0,286047000.5,N
1503367815.8,286047004.0,N
1503367835.6,286047002.6,N
1503367855.4,286047001.9,N
1503367875.3,286047007.6,P
1503367895.1,286047003.7,N
1503367915.9,286047001.3,N
1503367935.7,286047005.0,N
1503367955.5,286047007.1,N
1503367975.3,286047004.8,N
1503367995.2,286047005.3,N
1503368015.0,286047005.9,N
1503368015.9,286047005.9,N
1503368035.7,286047003.2,N
1503368055.6,286047006.8,P
1503368075.4,286047007.7,P
1503368095.2,286047006.2,P
1503368115.1,286047008.3,P
1503368116.0,286047008.3,P
1503368135.8,286047001.1,N
1503368155.7,286046997.9,N
1503368175.5,286046997.6,N
1503368195.3,286046997.5,N
1503368215.1,286046998.7,N
1503368235.9,286046998.3,N
1503368255.7,286046998.1,N
1503368275.5,286047002.7,N
1503368295.4,286046999.0,N
1503368315.2,286046999.2,N
1503368335.0,286047002.2,N
1503368335.9,286047002.2,N
1503368355.8,286047003.4,N
1503368375.6,286047003.2,N
1503368395.4,286047002.1,N
1503368415.3,286047001.6,N
1503368435.1,286047004.1,N
1503368436.0,286047004.1,N
1503368455.8,286047008.8,N
1503368475.7,286047008.0,N
1503368495.5,286047003.3,N
1503368515.3,286047003.6,N
1503368535.2,286047002.8,N
1503368555.9,286047004.3,N
1503368575.7,286047001.3,N
1503368595.5,286047002.6,N
1503368615.4,286047000.4,N
1503368635.2,286046999.1,N
1503368655.0,286046998.5,N
1503368655.9,286046998.5,N
1503368675.8,286047002.0,N
1503368695.6,286047003.4,N
1503368715.4,286047005.6,N
1503368735.3,286047005.6,N
1503368755.1,286047006.1,N
1503368756.0,286047006.1,N
1503368775.8,286047006.4,N
1503368795.7,286047002.9,N
1503368815.5,286047005.1,N
1503368835.3,286047003.9,N
1503368855.2,286047001.6,N
1503368875.9,286047002.3,N
1503368895.7,286046999.8,N
1503368915.6,286047002.7,N
1503368935.4,286047002.3,N
1503368955.2,286047000.5,N
1503368975.0,286047002.7,N
1503368975.9,286047002.7,N
1503368995.8,286047002.3,N
1503369015.6,286047002.6,N
1503369035.4,286047001.9,N
1503369055.3,286047003.4,N
1503369075.1,286047001.3,N
1503369095.8,286047003.2,N
1503369115.7,286047003.9,N
1503369135.5,286047004.5,N
1503369155.3,286047004.9,N
1503369175.2,286047009.6,P
1503369195.9,286047007.6,N
1503369215.7,286047003.5,N
1503369235.6,286047003.0,N
1503369255.4,286047003.9,N
1503369275.2,286047004.1,N
1503369295.1,286047005.8,N
1503369296.0,286047005.8,N
1503369315.8,286047007.1,P
1503369335.6,286047002.0,N
1503369355.5,286047000.7,N
1503369375.3,286046998.5,N
1503369395.1,286046999.7,N
1503369415.9,286047000.6,N
1503369435.7,286047003.4,N
1503369455.5,286047007.1,N
1503369475.3,286047008.1,N
1503369495.2,286047004.0,N
1503369515.0,286046999.9,N
1503369515.9,286046999.9,N
1503369535.7,286047004.2,N
1503369555.6,286047003.5,N
1503369575.4,286047005.4,N
1503369595.2,286047001.7,N
1503369615.1,286047004.4,N
1503369616.0,286047004.4,N
1503369635.8,286047002.0,N
1503369655.6,286047003.5,N
1503369675.5,286047002.3,N
1503369695.3,286047002.8,N
1503369715.1,286047002.2,N
1503369735.9,286047002.9,N
1503369755.7,286047001.5,N
1503369775.5,286047000.5,N
1503369795.3,286047000.3,N
1503369815.2,286047001.2,N
1503369835.0,286047000.2,N
1503369835.9,286047000.2,N
1503369855.7,286047002.3,N
1503369875.6,286047001.7,N
1503369895.4,286047005.1,N
1503369915.2,286047008.2,P
1503369935.1,286047004.6,N
1503369936.0,286047004.6,N
1503369955.8,286047002.1,N
1503369975.6,286046998.2,N
1503369995.5,286046998.4,N
1503370015.3,286047000.0,N
1503370035.1,286047001.7,N
1503370055.9,286047001.0,N
1503370075.7,286047004.0,N
1503370095.5,286047007.4,N
1503370115.4,286047008.9,N
1503370135.2,286047004.6,N
1503370155.0,286047008.3,N
1503370155.9,286047008.3,N
1503370175.8,286047007.0,N
1503370195.6,286047006.3,N
1503370215.4,286047004.6,N
1503370235.2,286047006.3,N
1503370255.1,286047010.0,P
1503370256.0,286047010.0,P
1503370275.8,286047002.0,N
1503370295.7,286047000.9,N
1503370315.5,286047000.0,N
1503370335.3,286046999.7,N
1503370355.1,286046998.4,N
1503370375.9,286047000.3,N
1503370395.7,286047003.1,N
1503370415.5,286047003.4,N
1503370435.4,286047002.4,N
1503370455.2,286046999.9,N
1503370475.0,286047000.1,N
1503370475.9,286047000.1,N
1503370495.8,286047001.0,N
1503370515.6,286046998.4,N
1503370535.4,286047003.8,N
1503370555.3,286047002.3,N
1503370575.1,286047001.1,N
1503370576.0,286047001.1,N
1503370595.8,286047000.2,N
1503370615.7,286047000.3,N
1503370635.5,286047002.3,N
1503370655.3,286047002.1,N
1503370675.1,286047002.9,N
1503370695.9,286047005.1,N
1503370715.7,286047004.0,N
1503370735.5,286047004.8,N
1503370755.4,286047005.0,N
1503370775.2,286047005.2,N
1503370795.0,286047001.6,N
1503370795.9,286047001.6,N
